Weather in Uvarovka

Russia / Samara Oblast     53°07′25″N   48°21′41″E
temp.,
°C
wind,
m/s
gust,
m/s
humid.,
%
clouds,
%
prec.,
mm/h
press.,
hPa
HPBL,
m
6 august, fri
fri601:00+16nw11585 0.0 101711
04:00+14nw116477 0.0 101711
07:00+17nw1259100 0.0 101872
10:00+22n22435 0.0 1017800
13:00+26n34291 0.0 10172246
16:00+28n44255 0.0 10162425
19:00+25ne463375 0.0 1015218
22:00+18ne22435 0.0 101713
7 august, sat
sat701:00+16ne22485 0.0 101712
04:00+15nne225215 0.0 101711
07:00+18ene12505 0.0 101761
10:00+24ese333491 0.0 1017577
13:00+28se332780 0.0 10171380
16:00+29se232583 0.0 10161716
19:00+27s113497 0.0 101617
22:00+21ne22400 0.0 101711
8 august, sun
sun801:00+19ese22451 0.0 101812
04:00+17e225049 0.0 101912
07:00+19ese12507 0.0 101975
10:00+26ese3436100 0.0 1020504
13:00+30se442759 0.0 10191590
16:00+31se3326100 0.0 10192109
19:00+29ssw2235100 0.0 101824
22:00+23ne2241100 0.0 101911
9 august, mon
mon901:00+22e2243100 0.0 102016
04:00+21ese2247100 0.0 102132
07:00+22ese134899 0.0 1021104
10:00+27se343288 0.0 1021537
13:00+31ese332549 0.0 10201453
16:00+32se3322100 0.0 10192383
19:00+30ssw2231100 0.0 101917
22:00+24ene113894 0.0 101911
10 august, tue
tue1001:00+23s1140100 0.0 101911
04:00+22ese1142100 0.0 101911
07:00+24se1145100 0.0 101923
10:00+29se34316 0.0 1018599
13:00+32se44245 0.0 10172151
16:00+33se34225 0.0 10162558
19:00+31s34276 0.0 101578
22:00+25e113424 0.0 101511